Location: Bambrugge
(50.9212°N, 3.9299°E)
Time: 11:41:45
(UTC+00:00)

SL-4 R/B - Pass Details

Date: 23 May 2024
Orbit: 412 x 601 km, 51.6° (Epoch: 14 June)

Event Time Altitude Azimuth Distance (km) Brightness Sun altitude
Exits shadow 02:46:23 - 199° (SSW) 2,083 4.4 -7.7°
Reaches altitude 10° 02:46:59 10° 194° (SSW) 1,888 4.2 -7.6°
Maximum altitude 02:50:29 24° 140° (SE) 1,235 3.8 -7.2°
Drops below altitude 10° 02:54:05 10° 87° (E) 1,945 5.6 -6.8°
Sets 02:56:43 0° 74° (ENE) 2,859 6.9 -6.5°
